User: anonymous   Login
Location: Unspecified
(0.0000°N, 0.0000°E)
Time: 21:27:07
(UTC+00:00)
Language:

KUIPER-00149 - Orbit

View from above orbital plane
View from above orbital plane
View from above satellite
View from above satellite

Ground track
Ground track

The orbit is defined by the following mean orbital elements,

1 65968U          26145.33222128 +.00000000 +00000-0 +30945-3 0 00002
2 65968  51.9021 359.1956 0000818 115.5394 244.5653 14.79936203    00
Epoch (UTC): 25 May 2026 07:58:23
Eccentricity: 0.0000818
inclination: 51.9021°
perigee height: 629 km
apogee height: 630 km
right ascension of ascending node: 359.1956°
argument of perigee: 115.5394°
revolutions per day: 14.79936203
mean anomaly at epoch: 244.5653°

The dashed part of the orbit path shows where the satellite is in the earth's shadow,  

DLR